TimeMDT,TemperatureF,Dew PointF,Humidity,Sea Level PressureIn,VisibilityMPH,Wind Direction,Wind SpeedMPH,Gust SpeedMPH,PrecipitationIn,Events,Conditions,WindDirDegrees,DateUTC
12:55 AM,39.2,26.6,61,30.06,10.0,South,6.9,-,N/A,,Scattered Clouds,180,2013-05-04 06:55:00
1:55 AM,35.6,26.6,70,30.05,10.0,South,6.9,-,N/A,,Scattered Clouds,180,2013-05-04 07:55:00
2:55 AM,37.4,26.6,65,30.02,10.0,SSW,9.2,-,N/A,,Scattered Clouds,210,2013-05-04 08:55:00
3:55 AM,35.6,26.6,70,30.03,10.0,SW,9.2,-,N/A,,Scattered Clouds,220,2013-05-04 09:55:00
4:55 AM,35.6,26.6,70,30.04,10.0,SSW,5.8,-,N/A,,Scattered Clouds,200,2013-05-04 10:55:00
5:55 AM,35.6,26.6,70,30.04,25.0,SW,5.8,-,N/A,,Scattered Clouds,220,2013-05-04 11:55:00
6:55 AM,37.4,28.4,70,30.06,70.0,SW,4.6,-,N/A,,Scattered Clouds,220,2013-05-04 12:55:00
7:55 AM,42.8,28.4,57,30.07,70.0,WNW,6.9,-,N/A,,Scattered Clouds,290,2013-05-04 13:55:00
8:55 AM,46.4,30.2,53,30.08,70.0,NNW,8.1,-,N/A,,Mostly Cloudy,330,2013-05-04 14:55:00
9:55 AM,48.2,32.0,54,30.09,70.0,North,5.8,-,N/A,,Mostly Cloudy,360,2013-05-04 15:55:00
10:55 AM,51.8,32.0,47,30.09,70.0,North,4.6,-,N/A,,Mostly Cloudy,350,2013-05-04 16:55:00
11:55 AM,55.4,28.4,36,30.07,25.0,NE,8.1,-,N/A,,Mostly Cloudy,50,2013-05-04 17:55:00
12:55 PM,55.4,24.8,31,30.06,25.0,ENE,16.1,-,N/A,,Mostly Cloudy,70,2013-05-04 18:55:00
1:55 PM,57.2,26.6,31,30.07,25.0,ENE,9.2,-,N/A,,Mostly Cloudy,60,2013-05-04 19:55:00
2:55 PM,57.2,26.6,31,30.05,25.0,ENE,11.5,-,N/A,,Scattered Clouds,60,2013-05-04 20:55:00
3:55 PM,55.4,26.6,33,30.06,25.0,ENE,8.1,-,N/A,,Scattered Clouds,70,2013-05-04 21:55:00
4:55 PM,57.2,26.6,31,30.06,25.0,ENE,10.4,-,N/A,,Mostly Cloudy,60,2013-05-04 22:55:00
5:55 PM,53.6,26.6,35,30.09,25.0,ENE,9.2,-,N/A,,Scattered Clouds,60,2013-05-04 23:55:00
6:55 PM,51.8,26.6,38,30.11,25.0,ENE,10.4,-,N/A,,Mostly Cloudy,70,2013-05-05 00:55:00
7:55 PM,46.4,26.6,46,30.12,25.0,East,6.9,-,N/A,,Scattered Clouds,90,2013-05-05 01:55:00
8:55 PM,42.8,26.6,53,30.14,25.0,ESE,8.1,-,N/A,,Partly Cloudy,110,2013-05-05 02:55:00
9:55 PM,39.2,26.6,61,30.17,10.0,SE,10.4,-,N/A,,Scattered Clouds,140,2013-05-05 03:55:00
10:55 PM,39.2,26.6,61,30.17,10.0,SE,10.4,-,N/A,,Mostly Cloudy,140,2013-05-05 04:55:00
11:55 PM,37.4,26.6,65,30.16,10.0,SE,9.2,-,N/A,,Mostly Cloudy,130,2013-05-05 05:55:00